Regional Weather Roundup
Issued by NWS Mobile, AL

Home | Current Version | Previous Version | Text Only | Print | Product List | Glossary On
Versions: 1 2 3 4 5 6 7 8 9 10 11 12 13 14 15 16 17 18 19 20 21 22 23 24 25 26 27 28
000
ASUS44 KMOB 270212
RWRMOB
REGIONAL WEATHER ROUNDUP
NATIONAL WEATHER SERVICE MOBILE AL
900 PM CDT MON JUN 26 2017

NOTE: "FAIR" INDICATES FEW OR NO CLOUDS BELOW 12,000 FEET WITH NO
      SIGNIFICANT WEATHER AND/OR OBSTRUCTIONS TO VISIBILITY.

  * THESE STATIONS ARE PART OF THE UNIVERSITY OF SOUTH ALABAMA
    MESONET AND ARE NOT UNDER NWS OR FAA QUALITY CONTROL.

ALZ061>064-270300-
COASTAL ALABAMA

CITY           SKY/WX    TMP DP  RH WIND       PRES   REMARKS
MOBILE REG APT PTCLDY    74  63  68 N5        30.04S
BROOKLEY FIELD CLEAR     81  62  52 N7        30.04R
USA CAMPUS*      N/A     72  64  78 CALM      30.03F
DOG RIVER*       N/A    N/A N/A N/A MISG        N/A


CITY           SKY/WX    TMP DP  RH WIND       PRES   REMARKS
GULF SHORES    CLEAR     75  75 100 CALM      30.02S

$$

ALZ051>060-270300-
INTERIOR SOUTHWEST AND SOUTH CENTRAL ALABAMA

CITY           SKY/WX    TMP DP  RH WIND       PRES   REMARKS
GREENVILLE     CLEAR     74  66  76 N3        30.04R
EVERGREEN      CLEAR     72  68  87 CALM      30.04R
ATMORE*        NOT AVBL
ANDALUSIA/OPP    N/A     78  67  68 CALM      30.03R
ANDALUSIA*       N/A     75  68  78 NE2       30.03S
FLORALA APT    CLOUDY    76  69  79 CALM      30.04S
FLORALA*         N/A     73  68  83 CALM      30.71S

$$

FLZ001>006-270300-
WESTERN FLORIDA PANHANDLE

CITY           SKY/WX    TMP DP  RH WIND       PRES   REMARKS
PENSACOLA      CLEAR     82  61  48 N6        30.02R
NAS PENSACOLA  MOCLDY    75  65  70 CALM      30.01R
MILTON         PTCLDY    73  65  75 CALM      30.03R
WHTNG S FIELD  PTCLDY    77  66  68 NW5       30.03R


CITY           SKY/WX    TMP DP  RH WIND       PRES   REMARKS
JAY*             N/A     77  63  61 CALM      30.03S
CRESTVIEW      CLOUDY    75  67  76 CALM      30.03R
VALPARAISO     MOCLDY    83  67  56 N3        30.01R
DESTIN         CLOUDY    85  77  77 CALM      30.01R HX  95

$$

MSZ076-079-270300-
INTERIOR SOUTHEAST MISSISSIPPI

CITY           SKY/WX    TMP DP  RH WIND       PRES   REMARKS
LEAKESVILLE*   NOT AVBL
AGRICOLA*        N/A     73  63  68 CALM      30.03S

$$

MARINE OBSERVATIONS

STATION/POSITION TIME  TEMP    WIND        PRES    WAVE
                       AIR SEA DIR/SP/G            HT/PER
                 (UTC) (F)     (DEG/KT/KT) (MB)    (FT/S)
PASCAGOULA       0136   82      20/  4/  5 1016.6S
PETIT BOIS ISLND 0136   82      30/ 10/ 12 1017.3S
GRAND BAY        0045   82      10/  3     1017.0S
KATRINA CUT      0100   83      20/  8     1016.9
CEDAR POINT      0130   80     360/  6     1016.3S
E DAUPHIN ISLAND 0100   83     350/ 12/ 13 1016.2R
MIDDLE BAY LIGHT 0100   82     360/ 12     1016.6
USCG MOBILE BAY  0136   80 80  350/  4/  6 1017.5R
STATE DOCKS      0136   81 80              1016.9R
MEAHER PARK      0130   79      10/  2     1016.9R
FORT MORGAN      0136   83      10/ 13/ 14   N/A
12 S ORANGE BCH  0150   81 82  240/  8/  8 1016.2R   1
PENSACOLA BAY    0136   83 82              1016.5R
64 S DAUPHIN ISL 0150   81 85   60/  4/  6 1016.5S   2/ 4
67 S FORT MORGAN 0130   80      40/  4     1016.3S

$$

SELECTED LOCATIONS ACROSS THE REGION

CITY           SKY/WX    TMP DP  RH WIND       PRES   REMARKS
NEW ORLEANS    CLOUDY    81  71  71 SE8       30.03R
GULFPORT       PTCLDY    80  66  62 NE3       30.02R
PASCAGOULA AP  PTCLDY    73  69  87 CALM      30.03R
PASCAGOULA*    NOT AVBL
HATTIESBURG    PTCLDY    73  66  78 CALM      30.05R
LAUREL         PTCLDY    70  64  83 CALM      30.08R
MERIDIAN       PTCLDY    73  66  78 CALM      30.06R
JACKSON        PTCLDY    72  63  73 CALM      30.06R
MONTGOMERY     CLEAR     76  60  57 CALM      30.04S
TROY           CLEAR     72  70  93 CALM      30.05R
ASHFORD*         N/A     75  68  78 NE2       30.03S
DOTHAN         CLOUDY    79  72  79 N3        30.06R
PANAMA CITY    CLOUDY    77  73  87 CALM      30.00S

$$





USA.gov is the U.S. government's official web portal to all federal, state and local government web resources and services.